Location: Derby
(52.9213°N, 1.4761°W)
Time: 02:34:41
(UTC+01:00)

A-11 Canister half - Pass Details

Date: 26 May 2025
Orbit: 1524 x 1684 km, 47.3° (Epoch: 12 June)

Event Time Altitude Azimuth Distance (km) Brightness Sun altitude
Rises 02:15:43 0° 283° (WNW) 4,811 11.6 -14.3°
Reaches altitude 10° 02:21:09 10° 259° (W) 3,858 10.8 -14.0°
Maximum altitude 02:25:03 13° 235° (SW) 3,635 10.5 -13.8°
Enters shadow 02:26:32 13° 226° (SW) 3,677 10.4 -13.7°
